Location: Castle
(40.7167°S, 175.9500°E)
Time: 19:30:30
(UTC+00:00)

VELOX 1 - Visible Passes

Search period start: 05 December 2024 00:00
Search period end: 15 December 2024 00:00
Orbit: 593 x 604 km, 98.3° (Epoch: 05 December)

Date Brightness Start Highest point End Pass type
(mag) Time Alt. Az. Time Alt. Az. Time Alt. Az.
05 Dec ? 09:30:47 10° NW 09:33:22 16° W 09:35:57 10° SW visible
06 Dec ? 08:03:59 10° NNE 08:08:09 58° ESE 08:12:22 10° S visible
06 Dec ? 09:42:31 10° WNW 09:44:07 12° W 09:45:45 10° WSW visible
07 Dec ? 08:14:31 10° NNE 08:18:46 76° ESE 08:23:04 10° S visible
08 Dec ? 08:25:08 10° NNE 08:29:23 82° WNW 08:33:41 10° SSW visible
09 Dec ? 08:35:48 10° N 08:39:59 62° WNW 08:44:15 10° SSW visible
10 Dec ? 08:46:30 10° N 08:50:36 47° W 08:54:44 10° SSW visible
11 Dec ? 08:57:17 10° NNW 09:01:12 36° W 09:05:08 10° SSW visible
12 Dec ? 09:08:09 10° NNW 09:11:47 27° W 09:15:27 10° SW visible
13 Dec ? 09:19:07 10° NW 09:22:22 21° W 09:25:40 10° SW visible
14 Dec ? 09:30:14 10° NW 09:32:57 17° W 09:35:43 10° SW visible
